Regional Weather Roundup
Issued by NWS

Home | Current Version | Previous Version | Text Only | Print | Product List | Glossary On
Versions: 1 2 3 4 5 6 7 8 9 10 11 12 13 14 15 16 17 18 19 20 21 22 23 24 25 26 27
000
ASUS45 KREV 231010
RWRNV
NEVADA REGIONAL WEATHER ROUNDUP
NATIONAL WEATHER SERVICE RENO NV
300 AM PDT WED APR 23 2014

NOTE: "FAIR" INDICATES FEW OR NO CLOUDS BELOW 12,000 FEET WITH NO
SIGNIFICANT WEATHER AND/OR OBSTRUCTIONS TO VISIBILITY.

NVZ001-003-004-231100-
WESTERN NEVADA

CITY           SKY/WX    TMP DP  RH WIND       PRES   REMARKS
RENO           FAIR      40  22  48 NE3       30.02F
CARSON CITY    FAIR      36  19  51 N6        30.03S
MINDEN         CLEAR     34  27  75 CALM      30.04F
SLIDE MTN        N/A     18  16  93 W7          N/A
PYRAMID LAKE     N/A     43 N/A N/A W2          N/A
FALLON         FAIR      35  21  56 MISG      30.02F
LOVELOCK       FAIR      34  17  50 SE5       30.01F
HAWTHORNE      CLEAR     45  21  39 NW6       30.02F
$$

NVZ002-CAZ072-073-231100-
NORTHERN AND CENTRAL SIERRA

CITY           SKY/WX    TMP DP  RH WIND       PRES   REMARKS
S. LAKE TAHOE  FAIR      30  25  81 CALM      30.02F
TRUCKEE        FAIR      28  27  93 CALM      30.04S
SQUAW VLY 8000   N/A     23  21  93 CALM        N/A
SUSANVILLE     PTCLDY    32  27  80 W3        30.05R
BLUE CANYON    FAIR      33  28  81 E3        30.06S
MAMMOTH LAKES  CLOUDY    32  14  47 E8        29.98S
BRIDGEPORT     MOCLDY    26  18  71 NW3       29.98F
$$

NVZ030-031-036-231100-
NORTHERN NEVADA

CITY           SKY/WX    TMP DP  RH WIND       PRES   REMARKS
ELKO           FAIR      27  24  89 CALM      29.96S
WINNEMUCCA     FAIR      32  21  64 CALM      30.00F
WENDOVER       FAIR      39  19  45 W7        29.94S
$$

NVZ035-037-231100-
CENTRAL NEVADA

CITY           SKY/WX    TMP DP  RH WIND       PRES   REMARKS
ELY            FAIR      30  19  63 CALM      29.96R
EUREKA           N/A     32  22  66 CALM      29.96F
$$

NVZ013-014-231100-
SOUTH CENTRAL NEVADA

CITY           SKY/WX    TMP DP  RH WIND       PRES   REMARKS
TONOPAH        FAIR      39  16  39 NW9       29.99R
$$

NVZ017-020-022-231100-
SOUTHERN NEVADA

CITY           SKY/WX    TMP DP  RH WIND       PRES   REMARKS
LAS VEGAS      MOCLDY    64   7  10 NW14      29.77R
N. LAS VEGAS   FAIR      63   7  11 NW17G23   29.81R
NELLIS AFB     FAIR      62   7  11 SW2       29.82R
HENDERSON      FAIR      56  16  21 CALM      29.84R
MERCURY        FAIR      53  10  18 NE8       29.89R
$$



USA.gov is the U.S. government's official web portal to all federal, state and local government web resources and services.